Probability
3 3 3 3 3 3 2 2 3 3 3 3 3 3 3 1 0 0 1 2 3 3 3 3 3 3 4 5 5 4 3 3 3 3 3 3 3 3 3 3 3 3 3 2 2 2 2 2 3
3 3 3 3 3 3 2 2 3 3 4 4 4 3 3 2 1 1 2 3 3 3 3 3 3 3 3 4 5 4 3 3 3 3 3 3 3 3 2 2 2 2 2 1 1 1 1 1 2
3 3 3 3 3 3 3 3 3 4 4 5 5 4 3 2 1 2 3 3 3 3 3 3 4 3 3 4 6 5 4 3 3 3 3 3 3 1 1 1 1 1 1 0 0 0 0 0 1
2 3 3 3 4 4 3 3 3 3 4 4 4 5 4 3 3 3 3 3 3 3 3 4 5 4 4 5 6 6 4 3 3 3 3 3 2 1 0 0 0 0 0 0 0 0 0 0 0
1 1 3 4 5 5 4 3 3 3 3 3 4 5 4 4 3 3 3 3 3 3 3 4 5 6 6 6 7 6 4 3 3 3 2 2 1 0 0 0 0 0 0 0 1 1 1 0 0
0 1 3 4 4 4 4 3 3 3 3 3 4 4 4 4 4 3 3 3 3 3 3 4 5 6 6 6 6 5 4 3 3 3 2 1 0 0 0 0 0 0 0 0 1 2 1 0 0
1 1 2 2 2 2 4 4 3 3 3 3 3 4 4 4 3 3 3 3 3 3 3 3 4 4 4 4 4 4 3 3 3 3 3 2 1 0 0 0 0 0 0 0 1 1 1 0 0
0 1 1 1 0 2 5 5 4 3 4 3 3 3 3 3 4 4 4 3 3 3 3 3 3 3 3 3 3 3 3 3 3 3 3 3 2 1 1 0 0 0 0 0 0 0 0 0 0
1 1 0 0 0 2 5 6 4 4 4 4 4 4 4 4 5 6 5 4 3 2 2 2 2 2 3 3 3 3 3 3 3 3 3 3 2 2 1 0 0 0 0 0 0 0 0 0 0
3 2 1 0 0 2 5 6 5 5 5 4 5 6 7 6 6 6 5 4 2 1 1 1 1 1 1 2 2 2 2 3 3 3 3 3 1 1 1 0 0 0 0 0 0 0 0 0 0
3 3 1 0 0 2 5 6 5 5 5 5 8 12 12 8 5 4 4 4 3 2 1 0 0 0 0 1 1 0 1 2 2 2 2 2 1 0 0 0 0 0 0 0 0 1 0 0 0
1 1 0 0 0 1 4 5 5 5 5 7 12 16 14 8 4 3 3 3 3 3 2 1 0 0 0 0 0 0 0 1 1 1 1 1 0 0 0 0 0 0 0 0 0 0 0 0 0
0 0 0 0 0 1 2 4 4 4 6 10 14 16 13 8 4 3 3 3 3 3 2 1 0 0 0 0 0 0 0 0 0 0 0 0 0 0 0 0 0 0 0 0 0 0 0 0 0
0 0 0 0 0 0 1 2 3 5 8 12 14 14 11 7 4 3 3 2 2 2 1 0 0 0 0 0 0 0 0 0 0 0 0 0 0 0 0 0 0 0 0 0 0 0 0 0 0
0 0 0 0 0 0 0 2 3 6 9 11 12 12 10 7 4 2 2 1 1 1 0 0 0 0 0 0 0 0 0 0 0 0 0 0 0 0 0 0 0 0 0 0 0 0 0 0 0
0 0 0 0 0 0 0 1 2 4 8 9 10 10 9 6 3 2 1 0 0 0 0 0 0 0 0 0 0 0 0 0 0 0 0 0 0 0 0 0 0 0 0 0 0 0 0 0 0
0 0 0 0 0 0 0 0 1 2 5 7 8 8 8 5 4 3 2 1 1 0 0 0 0 0 0 1 1 0 0 0 0 0 0 0 0 0 0 0 0 0 0 0 0 0 0 0 0
0 0 0 0 0 0 0 0 0 1 3 5 5 6 6 5 4 4 3 3 2 1 0 0 0 0 1 1 0 0 0 0 0 0 0 0 0 0 0 0 0 0 0 0 0 0 1 1 1
0 0 0 0 1 1 1 1 0 1 2 4 4 5 6 6 4 4 3 4 4 3 2 2 1 1 1 0 0 0 0 0 0 0 0 0 0 0 0 0 0 1 1 1 1 1 2 2 2
0 0 0 0 0 1 1 1 1 1 3 3 3 4 6 6 4 4 4 5 6 7 6 4 3 3 1 1 0 0 0 0 0 0 0 0 0 0 0 0 1 2 2 2 2 3 3 3 3
0 0 0 0 0 0 1 1 1 2 2 2 2 3 5 5 3 4 6 7 8 9 8 6 5 5 3 2 1 0 0 0 0 0 0 0 0 0 0 1 2 3 3 3 3 3 3 3 3
0 0 0 0 0 0 0 0 1 2 1 1 0 2 5 5 3 3 6 8 9 9 8 6 5 5 4 4 3 1 1 1 1 1 1 1 1 1 1 2 3 4 4 4 4 4 3 3 3
0 0 0 0 0 0 0 0 1 1 1 0 0 1 4 5 4 3 5 7 9 9 7 6 5 5 5 5 5 4 3 3 3 3 3 2 2 2 3 3 4 5 6 6 6 5 4 3 3
0 0 0 0 0 0 0 0 0 0 0 1 1 1 2 5 6 5 5 7 8 9 9 8 7 6 7 7 7 7 6 6 6 5 4 4 4 4 3 4 5 6 6 6 6 5 4 3 3
0 0 0 0 0 0 0 0 0 1 2 3 2 1 1 4 7 7 7 8 9 10 11 10 8 8 9 10 10 10 10 10 9 7 6 6 6 5 5 6 7 7 6 6 5 4 3 3 3
0 0 0 0 0 0 0 1 1 2 4 5 4 2 1 3 6 8 10 13 15 15 15 14 12 10 12 13 13 13 14 14 13 11 10 8 7 7 7 8 9 8 7 6 5 3 3 3 3
0 0 0 0 0 0 1 2 3 4 4 5 4 3 3 4 6 10 15 19 21 21 20 19 18 17 17 18 17 16 17 18 16 15 13 11 10 9 8 10 11 10 9 8 5 4 3 3 3
0 0 0 0 0 0 1 2 3 4 4 4 4 4 4 5 8 12 18 22 23 22 23 24 26 27 26 25 22 19 19 20 20 18 17 15 12 11 11 11 11 12 11 10 8 7 7 6 5
0 0 0 0 0 0 1 1 2 3 5 6 6 6 6 6 9 15 21 24 24 24 25 28 31 33 33 30 26 22 21 22 22 21 19 17 14 12 12 12 13 13 13 13 12 12 12 11 9
0 0 0 0 0 0 0 1 1 3 6 8 8 7 6 7 10 17 23 25 25 25 27 29 32 34 35 32 28 25 23 22 22 22 20 19 16 13 12 13 13 14 15 16 15 14 14 15 14
Wind_Speed
7 5 2 1 3 4 2 2 1 2 3 3 5 6 6 4 2 2 1 4 6 6 6 9 13 15 16 17 17 17 17 17 17 17 17 16 16 15 15 14 13 13 13 13 13 12 12 12 12
5 4 1 2 4 3 2 2 2 2 5 5 5 5 6 4 4 5 3 4 7 7 6 8 14 15 16 16 16 16 16 16 16 16 15 15 15 14 14 13 13 12 12 12 12 11 11 11 11
5 2 1 3 3 2 1 0 4 5 5 3 4 5 4 3 4 4 3 7 8 7 6 9 15 15 16 15 15 15 15 15 15 15 14 14 13 13 13 12 11 11 11 10 10 10 10 9 9
2 1 2 4 1 2 3 3 5 6 4 5 5 5 4 3 3 5 8 9 9 6 6 8 15 15 15 14 14 14 14 14 13 13 13 12 12 12 11 11 10 9 9 9 9 9 9 8 8
1 2 4 3 2 1 2 5 5 4 3 4 4 5 4 3 7 10 9 9 8 6 5 7 14 14 14 13 14 13 12 12 12 12 11 11 10 10 9 9 8 8 8 8 8 8 7 7 6
2 3 4 2 3 1 2 4 4 5 4 4 5 5 3 3 8 9 8 7 7 7 5 6 12 13 13 13 13 13 12 11 11 11 11 10 10 9 8 8 7 7 7 6 7 6 6 5 5
2 3 1 1 1 0 3 4 5 5 5 4 5 6 3 3 6 8 7 7 6 6 5 4 5 8 11 12 12 12 11 10 10 10 10 9 9 8 8 7 7 6 6 6 6 5 4 4 3
3 3 1 1 1 2 3 4 3 6 5 6 5 7 6 6 8 8 7 6 5 5 4 4 3 4 4 5 10 11 10 9 9 9 9 8 8 8 7 6 6 6 5 5 5 4 3 3 2
2 4 1 3 3 2 4 4 3 4 7 4 3 4 7 14 12 10 7 5 5 5 3 3 3 4 4 3 6 7 8 8 7 6 7 5 2 2 3 4 5 5 5 5 4 4 3 2 2
3 2 5 4 4 3 4 5 6 5 5 3 5 8 14 15 13 11 10 9 7 6 4 3 4 4 3 3 2 2 2 3 3 2 2 2 2 1 2 2 4 4 4 3 3 3 2 1 1
4 5 4 3 3 4 4 4 5 8 5 7 11 15 17 15 12 11 10 9 8 7 6 5 4 4 3 2 2 1 1 2 2 2 2 2 1 1 0 0 1 0 1 0 0 0 1 1 1
4 5 4 3 1 4 5 4 4 6 6 8 14 19 18 16 14 12 11 9 7 7 6 5 5 4 3 3 2 2 1 1 1 2 2 2 1 1 0 0 0 0 0 0 0 0 0 0 1
3 3 2 1 1 4 5 3 3 3 4 11 15 16 17 15 12 10 9 8 7 8 7 6 6 5 4 3 2 2 2 2 2 2 2 2 2 1 1 1 1 1 1 1 1 1 1 1 2
2 2 2 2 2 3 5 2 3 2 9 14 15 15 15 14 13 10 9 8 8 8 8 6 6 5 5 3 3 2 2 2 2 2 3 3 3 2 2 1 1 1 1 1 1 2 1 1 1
1 3 5 3 3 2 5 2 1 4 11 13 13 12 13 11 11 11 11 10 9 8 7 7 7 6 5 5 4 3 3 3 2 2 3 3 3 3 2 2 2 2 1 1 1 1 1 1 1
4 4 3 4 2 2 6 3 2 8 12 12 11 11 11 10 11 10 10 8 8 7 7 8 8 7 6 5 4 3 3 3 2 2 2 3 3 3 3 2 2 2 1 1 1 1 0 1 1
5 2 1 3 1 2 3 3 1 8 10 10 10 10 10 9 9 9 10 9 9 8 8 7 6 7 7 5 4 3 2 2 2 2 2 3 3 4 3 2 2 2 1 1 1 1 1 1 1
2 1 2 2 2 3 2 1 1 6 9 8 9 9 9 11 11 9 9 9 8 8 8 8 7 6 5 4 2 1 1 2 2 2 3 3 3 4 3 2 2 2 1 1 1 1 1 1 1
4 2 3 4 2 2 2 2 2 6 7 7 7 8 9 11 8 7 8 8 8 8 8 8 8 7 5 3 3 3 3 2 2 3 4 4 4 4 3 3 2 2 2 2 2 2 1 0 1
3 2 4 3 0 3 2 2 3 7 10 10 10 9 10 8 7 8 8 8 9 9 9 9 9 8 7 5 4 3 3 2 2 2 2 3 4 4 4 3 3 3 2 2 2 2 1 1 1
3 5 5 3 2 2 2 4 1 2 4 5 6 7 8 10 10 10 11 11 10 10 10 10 9 8 8 6 3 2 2 1 1 2 2 3 4 4 4 4 3 3 3 3 3 3 3 2 1
4 6 5 3 2 1 1 2 5 2 3 6 8 9 9 9 9 9 10 10 11 11 10 9 8 8 7 7 6 6 5 4 4 3 3 3 3 4 4 4 4 4 3 3 3 3 3 3 2
6 1 2 2 3 1 1 2 7 2 4 8 9 11 11 10 10 11 12 12 11 10 9 9 8 8 7 8 8 7 6 4 3 2 3 3 3 4 4 4 4 4 3 4 3 3 4 3 3
3 6 6 6 5 0 3 3 6 4 6 6 7 8 9 10 10 10 9 8 8 8 8 8 8 8 8 9 8 8 8 6 5 4 4 3 2 3 4 4 4 4 4 4 4 4 4 4 3
5 7 4 5 4 5 2 3 8 7 6 7 7 7 7 8 9 9 8 9 8 9 9 8 9 9 8 9 9 9 9 8 8 7 5 4 3 3 4 4 4 4 4 4 4 4 4 4 4
4 8 8 5 5 4 1 5 8 6 5 4 4 4 4 5 7 9 10 10 10 10 10 10 10 9 9 9 9 8 8 6 6 6 5 5 4 5 4 4 4 4 4 4 4 3 4 4 4
5 3 6 7 2 0 4 5 8 3 3 3 2 1 2 4 6 8 9 10 10 10 10 11 10 9 9 9 8 7 8 7 7 6 6 4 4 4 4 4 4 4 4 4 4 4 4 4 4
5 7 6 6 6 3 4 4 5 5 6 4 3 2 3 3 3 4 6 8 9 10 9 9 10 10 8 8 8 8 8 8 7 6 6 5 5 4 4 4 5 5 5 5 5 4 4 4 4
3 4 5 4 5 7 4 7 6 7 6 5 5 4 4 4 4 4 5 6 7 6 7 7 8 7 7 8 7 7 7 7 7 6 6 6 5 5 5 5 5 5 5 5 5 5 5 5 5
3 5 7 5 4 4 4 8 5 4 4 4 4 4 3 3 3 2 2 3 4 6 6 7 7 7 7 6 6 7 6 6 6 6 6 5 5 5 5 5 5 6 5 5 6 6 5 6 5
Wind_Direction
155 144 145 137 52 46 13 323 114 89 66 56 74 80 91 80 103 137 114 136 123 126 128 128 127 126 124 123 122 122 122 123 123 122 121 121 121 121 120 118 116 116 115 114 113 111 109 107 106
148 160 177 61 71 50 329 322 89 95 133 130 83 73 75 68 68 102 122 137 124 124 122 128 129 127 126 125 125 125 125 125 125 124 123 122 122 122 122 120 119 119 117 117 117 116 113 110 109
170 198 81 61 76 157 222 138 114 104 122 109 82 65 74 94 114 128 146 134 116 117 121 136 133 131 130 129 128 126 126 127 127 127 126 125 124 123 123 122 122 121 120 119 121 120 116 113 112
167 70 49 58 30 234 191 162 134 126 86 63 92 76 68 82 124 132 133 129 119 120 126 139 136 136 134 131 129 129 129 130 130 129 128 127 126 126 126 126 125 123 123 125 125 122 119 116 114
98 73 48 25 324 293 148 144 137 120 90 76 89 87 59 42 103 120 129 129 125 124 130 136 137 137 137 134 133 133 133 133 132 131 130 129 130 131 131 129 129 128 127 128 128 123 122 119 115
61 61 61 358 328 14 109 134 123 101 101 101 98 96 71 100 120 131 129 126 127 129 128 131 141 142 141 139 139 139 140 139 139 138 136 136 137 138 138 137 138 136 135 134 132 129 127 125 118
94 78 91 257 297 318 164 137 132 124 120 131 123 104 106 131 132 128 119 114 116 119 121 126 137 143 145 143 144 146 144 146 147 146 145 147 147 147 146 146 148 146 143 141 139 136 135 137 129
127 89 33 271 204 235 158 128 130 131 120 126 124 136 162 163 133 117 107 105 110 112 117 124 122 121 130 141 150 151 150 152 154 152 150 152 155 154 155 153 157 157 154 153 154 156 158 154 151
111 71 232 227 203 216 152 128 120 104 118 127 123 142 147 138 133 125 120 117 130 139 127 125 123 119 119 134 158 156 155 156 155 154 155 144 110 116 145 163 173 174 172 171 174 179 178 166 159
113 149 229 222 197 176 166 145 143 122 130 120 95 106 128 141 147 149 153 156 161 165 161 145 140 133 131 150 128 111 123 130 123 114 118 105 105 128 158 189 197 197 194 196 194 193 182 138 111
167 206 246 255 211 153 152 142 135 137 182 187 159 148 148 154 159 165 169 169 173 170 170 163 154 147 146 137 132 114 102 110 117 127 123 115 106 107 79 39 277 285 239 34 329 23 59 127 163
191 241 240 268 180 143 154 145 140 172 207 167 155 152 156 164 171 176 176 176 170 169 177 169 161 159 163 154 148 139 138 141 149 153 148 140 141 151 156 174 235 303 153 127 83 126 197 205 223
216 267 271 270 103 140 132 141 153 181 121 130 141 152 163 172 178 182 178 174 173 178 180 177 170 173 171 161 172 168 173 177 177 171 173 171 178 195 197 211 222 231 205 192 201 211 227 244 249
245 287 327 358 63 117 118 93 105 155 131 137 151 163 172 178 180 178 177 180 184 188 187 180 178 179 170 171 181 183 181 182 179 193 200 190 189 195 198 218 233 238 221 208 211 227 230 246 243
5 17 12 21 57 103 104 45 226 154 143 149 162 171 178 184 185 189 188 187 188 190 186 183 185 180 178 182 190 188 186 182 193 207 207 200 196 195 192 204 226 233 222 213 219 242 235 253 245
39 48 14 329 38 92 118 237 249 151 152 161 171 177 184 191 194 196 192 189 187 184 184 191 193 184 186 187 189 188 185 185 198 203 204 206 200 193 185 198 221 218 191 185 203 219 220 261 252
33 39 301 317 8 103 118 244 251 159 160 170 178 184 187 194 201 199 193 189 185 184 181 184 191 183 186 185 182 186 180 190 198 199 204 207 201 191 184 201 213 192 180 193 215 177 185 233 247
234 222 260 259 279 91 119 254 150 164 166 176 183 188 190 200 207 199 193 188 182 179 178 182 187 186 176 166 162 170 181 202 203 206 211 203 196 189 182 198 206 183 179 195 185 180 184 215 237
173 188 246 249 226 131 187 228 207 176 175 182 186 190 198 207 201 189 188 185 179 178 179 183 186 183 167 163 173 180 199 203 207 214 215 207 200 192 184 195 183 178 186 202 190 177 181 197 120
171 204 260 290 192 151 175 257 219 183 195 196 193 196 201 198 186 187 184 184 187 187 188 190 193 185 180 183 177 178 178 189 198 212 208 204 198 195 195 191 189 185 182 190 188 173 162 183 141
217 200 228 238 5 40 71 332 280 217 208 208 207 204 201 199 197 193 190 191 189 191 194 198 198 192 187 179 156 148 128 123 180 205 209 208 198 198 198 194 192 190 186 197 196 179 175 193 196
246 223 206 195 124 280 120 270 293 253 236 224 218 208 208 207 201 197 194 194 195 197 194 195 192 192 188 177 176 179 188 199 206 201 204 210 205 204 200 196 194 195 194 199 203 188 186 176 198
218 204 146 138 136 74 32 151 285 297 259 246 232 219 214 207 200 197 197 196 196 192 191 193 191 194 188 186 188 190 201 205 196 192 203 214 215 212 206 197 194 197 199 204 204 188 189 188 192
145 70 50 48 74 345 235 166 273 242 231 250 238 226 214 204 199 199 197 188 189 184 186 187 190 200 193 191 193 195 198 193 191 201 206 212 212 216 215 205 201 201 201 204 207 200 196 200 201
91 88 36 4 12 253 251 176 246 248 240 236 237 229 214 198 192 189 187 188 188 186 188 187 191 201 197 196 199 200 200 195 200 203 205 207 208 214 217 210 206 206 207 205 200 197 204 203 204
166 140 157 190 215 267 304 226 252 261 266 263 245 228 199 190 191 188 191 191 191 191 190 190 194 200 197 199 204 202 199 199 207 207 203 207 212 217 209 202 211 215 210 207 198 208 211 207 213
140 168 166 137 151 211 272 279 297 289 286 282 276 248 205 204 197 195 191 190 189 191 194 193 194 197 199 202 201 201 201 203 207 205 205 206 208 211 206 203 210 216 213 205 196 216 218 212 218
137 143 103 123 150 220 273 261 249 268 263 265 262 245 236 224 212 205 196 195 194 193 194 191 192 196 197 197 200 204 203 204 203 200 204 202 205 207 193 195 208 214 212 206 204 212 217 221 228
97 95 105 117 151 160 220 260 230 230 236 233 238 237 232 224 216 210 203 198 193 187 184 188 192 191 192 196 199 202 202 201 199 202 205 204 202 199 203 206 208 214 216 210 206 213 213 220 231
155 156 145 151 209 176 179 257 273 237 238 228 241 251 241 219 218 205 180 173 178 181 180 185 189 191 195 192 193 199 197 194 198 204 207 203 203 204 209 207 209 217 217 210 210 217 216 217 225